Location: Newark
(41.0400°S, 62.7845°W)
Time: 08:54:58
(UTC+00:00)

ISS - Visible Passes

Search period start: 18 September 2020 00:00
Search period end: 28 September 2020 00:00
Orbit: 419 x 420 km, 51.6° (Epoch: 18 September)

Date Brightness Start Highest point End Pass type
(mag) Time Alt. Az. Time Alt. Az. Time Alt. Az.
20 Sep -0.8 09:30:27 10° NNE 09:32:29 15° NE 09:34:31 10° E visible
22 Sep -2.6 09:30:54 10° NNW 09:34:10 43° NE 09:37:27 10° ESE visible
23 Sep -1.7 08:43:59 10° NNW 08:46:51 25° NE 08:49:44 10° ESE visible
24 Sep -1.2 07:58:42 14° NNE 07:59:35 15° NE 08:01:40 10° E visible
25 Sep -3.6 08:46:28 21° NW 08:48:35 77° NE 08:52:02 10° ESE visible
26 Sep -2.9 08:01:07 43° NE 08:01:11 43° NE 08:04:28 10° ESE visible
27 Sep -0.9 07:15:39 16° E 07:15:39 16° E 07:16:44 10° ESE visible
27 Sep -3.0 08:48:37 21° W 08:50:31 41° SSW 08:53:48 10° SE visible
